Temp
-8 -7 -7 -7 -7 -6 -6 -6 -7 -7 -7 -7 -7 -7 -7 -7 -7 -7 -7 -7 -7 -7 -7 -7 -7 -7 -7 -7 -7 -7 -7 -7 -7 -7 -7 -7 -7 -7 -7 -7 -7 -7 -7
-8 -8 -7 -7 -7 -7 -6 -7 -7 -7 -7 -7 -7 -7 -7 -7 -7 -7 -7 -7 -7 -7 -7 -7 -7 -7 -7 -7 -7 -7 -7 -7 -7 -7 -7 -7 -7 -7 -7 -7 -7 -7 -7
-8 -8 -7 -7 -7 -7 -7 -7 -7 -7 -7 -7 -7 -7 -7 -7 -7 -7 -7 -7 -7 -7 -7 -7 -7 -7 -7 -7 -7 -7 -8 -7 -7 -7 -7 -7 -7 -7 -7 -7 -7 -7 -7
-8 -8 -7 -7 -7 -7 -7 -7 -7 -7 -7 -7 -7 -7 -7 -7 -7 -7 -7 -7 -7 -7 -7 -7 -7 -7 -7 -7 -7 -7 -7 -8 -8 -8 -8 -8 -8 -8 -7 -7 -7 -8 -8
-8 -8 -8 -7 -7 -7 -7 -7 -7 -7 -7 -7 -8 -8 -8 -8 -8 -8 -8 -8 -8 -8 -8 -8 -8 -8 -8 -8 -8 -8 -8 -8 -8 -8 -8 -8 -8 -8 -8 -8 -8 -8 -8
-8 -8 -8 -8 -7 -7 -7 -7 -7 -7 -7 -8 -8 -8 -8 -8 -8 -8 -8 -8 -8 -8 -8 -8 -8 -8 -8 -8 -8 -8 -8 -8 -8 -8 -8 -8 -8 -8 -8 -8 -8 -8 -8
-9 -8 -8 -8 -8 -7 -7 -7 -7 -7 -8 -8 -8 -8 -8 -8 -8 -8 -9 -9 -9 -9 -9 -9 -9 -9 -9 -9 -8 -8 -8 -9 -9 -8 -9 -9 -8 -9 -8 -8 -8 -8 -8
-9 -9 -8 -8 -8 -8 -8 -7 -7 -7 -8 -8 -8 -8 -8 -8 -8 -8 -8 -9 -9 -9 -9 -9 -9 -9 -9 -9 -9 -9 -9 -9 -9 -9 -9 -9 -9 -9 -9 -9 -9 -9 -9
-9 -9 -9 -8 -8 -8 -8 -8 -8 -8 -8 -8 -8 -8 -8 -8 -8 -8 -8 -8 -9 -9 -9 -9 -9 -9 -9 -9 -9 -10 -9 -9 -9 -9 -9 -9 -9 -9 -9 -9 -9 -9 -9
-9 -9 -9 -9 -8 -8 -8 -8 -8 -8 -8 -8 -8 -8 -8 -9 -8 -8 -8 -9 -9 -9 -9 -9 -10 -10 -10 -10 -10 -10 -10 -10 -10 -9 -9 -9 -9 -9 -9 -9 -9 -9 -9
-10 -9 -9 -9 -9 -8 -8 -8 -8 -8 -8 -8 -9 -9 -9 -9 -9 -9 -9 -9 -9 -9 -9 -9 -10 -10 -10 -10 -10 -10 -10 -10 -10 -10 -10 -10 -10 -10 -9 -9 -9 -9 -9
-10 -10 -9 -9 -9 -9 -8 -8 -8 -8 -8 -9 -9 -9 -9 -9 -9 -9 -9 -9 -9 -9 -9 -10 -10 -10 -10 -10 -10 -10 -11 -11 -11 -10 -10 -10 -10 -10 -10 -10 -10 -10 -10
-11 -10 -10 -10 -9 -9 -9 -8 -8 -8 -9 -9 -9 -9 -9 -9 -9 -9 -9 -9 -10 -10 -10 -10 -10 -10 -10 -10 -10 -11 -11 -11 -11 -11 -11 -10 -10 -10 -10 -10 -10 -10 -10
-11 -11 -10 -10 -10 -10 -9 -9 -9 -9 -9 -9 -9 -9 -10 -10 -9 -10 -10 -9 -10 -10 -10 -10 -10 -10 -10 -10 -10 -11 -11 -11 -11 -11 -11 -11 -11 -10 -10 -10 -10 -10 -11
-11 -11 -11 -11 -10 -10 -9 -9 -9 -9 -9 -9 -9 -10 -10 -10 -10 -10 -10 -10 -10 -10 -10 -10 -10 -10 -10 -11 -10 -10 -11 -11 -11 -11 -11 -11 -11 -11 -11 -11 -11 -11 -11
-11 -11 -11 -11 -10 -10 -10 -10 -9 -9 -9 -10 -10 -10 -10 -10 -10 -10 -10 -11 -10 -10 -11 -11 -11 -11 -11 -11 -11 -11 -11 -11 -11 -11 -11 -11 -11 -11 -11 -11 -11 -11 -11
-11 -11 -11 -11 -10 -10 -10 -10 -10 -10 -10 -10 -10 -10 -10 -11 -11 -10 -10 -11 -11 -11 -11 -11 -11 -11 -11 -11 -11 -11 -11 -11 -11 -11 -11 -11 -11 -11 -11 -11 -11 -11 -11
-11 -11 -11 -11 -11 -10 -11 -11 -10 -10 -10 -10 -11 -11 -11 -11 -11 -11 -11 -11 -11 -11 -11 -11 -11 -11 -12 -12 -12 -11 -11 -11 -11 -11 -11 -11 -11 -11 -11 -11 -11 -11 -11
-12 -11 -12 -11 -10 -11 -11 -11 -11 -11 -11 -11 -11 -11 -11 -11 -11 -11 -11 -11 -11 -11 -11 -11 -11 -12 -12 -12 -12 -12 -12 -12 -11 -11 -11 -11 -11 -10 -11 -11 -11 -11 -11
-12 -12 -12 -11 -11 -11 -12 -12 -12 -12 -11 -11 -11 -12 -12 -12 -12 -11 -12 -12 -12 -12 -11 -11 -11 -12 -12 -12 -12 -12 -12 -12 -11 -11 -11 -11 -11 -11 -11 -11 -11 -11 -11
-12 -12 -11 -12 -10 -10 -11 -12 -13 -13 -12 -12 -12 -12 -12 -12 -12 -12 -12 -12 -12 -12 -12 -12 -12 -12 -12 -12 -12 -12 -12 -12 -12 -12 -11 -11 -11 -11 -11 -12 -12 -11 -11
-12 -12 -12 -12 -11 -11 -12 -12 -12 -13 -13 -13 -13 -13 -13 -12 -12 -12 -12 -12 -12 -12 -12 -12 -12 -12 -12 -12 -12 -12 -12 -12 -12 -12 -12 -11 -12 -12 -12 -12 -11 -11 -12
-12 -12 -12 -12 -12 -12 -12 -12 -11 -12 -13 -13 -12 -13 -13 -12 -13 -12 -12 -12 -13 -13 -12 -13 -13 -13 -13 -13 -13 -13 -12 -13 -13 -12 -12 -12 -12 -12 -12 -12 -12 -12 -12
-13 -12 -12 -12 -13 -13 -12 -13 -13 -13 -13 -12 -12 -13 -12 -13 -13 -13 -12 -13 -13 -13 -13 -13 -13 -13 -13 -13 -13 -13 -13 -12 -13 -13 -12 -12 -12 -12 -12 -12 -12 -13 -13
-13 -13 -13 -13 -13 -13 -12 -11 -12 -13 -13 -13 -12 -13 -13 -13 -13 -13 -13 -13 -13 -13 -13 -13 -13 -13 -13 -13 -13 -13 -13 -12 -12 -12 -13 -12 -13 -13 -13 -13 -13 -13 -13
-13 -13 -13 -13 -13 -13 -13 -13 -13 -12 -12 -12 -13 -13 -13 -13 -13 -13 -13 -13 -13 -13 -13 -13 -13 -13 -14 -14 -14 -13 -14 -14 -14 -14 -14 -13 -13 -13 -13 -13 -13 -14 -14
Height
5869 5870 5871 5873 5875 5877 5878 5880 5881 5882 5883 5884 5885 5885 5886 5885 5885 5885 5885 5884 5884 5884 5883 5883 5883 5882 5882 5882 5881 5881 5881 5880 5879 5878 5877 5876 5874 5873 5872 5871 5870 5868 5867
5866 5868 5870 5872 5874 5876 5877 5878 5880 5882 5883 5884 5885 5885 5886 5885 5885 5885 5885 5885 5884 5884 5884 5883 5883 5883 5882 5882 5882 5881 5881 5880 5879 5878 5877 5876 5875 5873 5872 5871 5869 5868 5866
5864 5866 5868 5870 5872 5874 5876 5877 5879 5881 5882 5884 5885 5885 5885 5885 5885 5885 5885 5885 5884 5884 5884 5883 5882 5882 5882 5882 5882 5881 5880 5880 5878 5878 5877 5875 5874 5873 5871 5870 5868 5866 5864
5861 5863 5866 5868 5870 5872 5874 5875 5878 5879 5881 5882 5884 5885 5885 5885 5885 5885 5885 5884 5884 5884 5884 5883 5883 5882 5882 5881 5881 5881 5880 5879 5878 5877 5875 5874 5873 5871 5870 5868 5866 5865 5863
5857 5860 5863 5866 5868 5870 5872 5874 5876 5878 5879 5881 5882 5883 5884 5884 5884 5884 5883 5883 5883 5883 5883 5883 5882 5882 5882 5881 5881 5880 5879 5878 5877 5876 5874 5873 5872 5870 5868 5867 5865 5863 5862
5853 5856 5860 5863 5866 5867 5869 5872 5874 5876 5878 5879 5881 5882 5882 5882 5883 5883 5882 5882 5882 5882 5882 5882 5881 5881 5880 5880 5880 5879 5877 5877 5875 5874 5873 5871 5870 5868 5867 5865 5863 5861 5859
5848 5852 5856 5859 5862 5865 5867 5869 5872 5874 5876 5878 5879 5880 5880 5881 5881 5881 5881 5881 5881 5881 5881 5881 5880 5880 5879 5879 5878 5878 5876 5875 5874 5873 5871 5870 5868 5867 5865 5863 5861 5859 5857
5844 5848 5852 5855 5859 5862 5864 5866 5869 5871 5873 5875 5877 5878 5879 5879 5879 5879 5880 5880 5880 5880 5880 5879 5878 5878 5877 5877 5877 5876 5874 5873 5872 5871 5869 5868 5866 5865 5863 5862 5860 5858 5855
5839 5843 5847 5851 5855 5858 5861 5863 5866 5868 5870 5872 5874 5875 5876 5877 5878 5878 5877 5878 5879 5878 5878 5877 5876 5875 5875 5874 5874 5874 5871 5871 5870 5868 5867 5866 5865 5863 5861 5859 5858 5856 5854
5833 5838 5842 5846 5851 5854 5856 5859 5862 5864 5866 5868 5870 5872 5874 5875 5875 5876 5876 5877 5877 5876 5876 5875 5874 5872 5872 5871 5871 5870 5869 5868 5867 5866 5864 5863 5862 5860 5859 5856 5855 5853 5851
5827 5832 5836 5841 5845 5849 5852 5855 5858 5861 5863 5865 5867 5869 5871 5872 5873 5873 5874 5875 5875 5874 5874 5872 5871 5870 5869 5868 5867 5866 5866 5864 5863 5862 5861 5860 5858 5857 5855 5853 5851 5849 5847
5821 5826 5831 5836 5840 5844 5847 5850 5853 5856 5859 5862 5863 5865 5867 5868 5869 5870 5871 5872 5872 5872 5871 5870 5869 5867 5866 5865 5863 5861 5861 5860 5859 5858 5857 5855 5854 5852 5851 5849 5847 5845 5843
5813 5819 5824 5829 5833 5838 5841 5845 5848 5851 5854 5857 5859 5861 5862 5864 5865 5867 5868 5868 5868 5868 5868 5867 5865 5864 5863 5861 5860 5858 5856 5856 5855 5854 5852 5851 5850 5848 5846 5845 5843 5841 5839
5805 5810 5817 5823 5827 5833 5836 5840 5843 5846 5849 5851 5854 5856 5858 5859 5860 5862 5864 5864 5865 5865 5864 5863 5862 5861 5859 5858 5856 5855 5853 5852 5850 5849 5848 5846 5845 5843 5842 5840 5838 5836 5834
5797 5804 5811 5816 5822 5827 5831 5835 5838 5841 5844 5847 5850 5851 5853 5855 5856 5858 5859 5860 5861 5861 5860 5859 5858 5858 5856 5854 5853 5851 5850 5847 5846 5844 5843 5841 5840 5838 5837 5835 5833 5831 5828
5788 5797 5804 5809 5815 5821 5825 5829 5832 5836 5839 5842 5845 5847 5848 5850 5852 5853 5855 5855 5856 5856 5855 5855 5854 5853 5852 5850 5849 5847 5845 5843 5841 5840 5838 5836 5834 5832 5830 5828 5826 5824 5822
5780 5790 5798 5803 5810 5815 5819 5823 5827 5829 5832 5836 5839 5841 5843 5844 5846 5847 5849 5850 5850 5850 5850 5850 5849 5848 5847 5845 5844 5842 5840 5838 5836 5833 5832 5830 5828 5825 5823 5822 5819 5818 5815
5772 5781 5789 5791 5796 5802 5807 5814 5819 5823 5826 5829 5832 5834 5837 5839 5840 5841 5842 5843 5844 5844 5844 5844 5843 5842 5841 5839 5838 5836 5835 5833 5831 5829 5825 5822 5820 5818 5816 5814 5812 5809 5807
5769 5776 5780 5774 5786 5791 5799 5803 5809 5815 5819 5822 5825 5828 5831 5833 5834 5834 5835 5837 5838 5838 5837 5837 5836 5835 5834 5833 5831 5829 5827 5825 5824 5821 5819 5816 5812 5810 5808 5806 5803 5801 5799
5762 5769 5773 5774 5764 5782 5787 5793 5802 5806 5810 5815 5818 5821 5824 5826 5827 5828 5829 5830 5830 5830 5830 5829 5829 5828 5826 5825 5824 5822 5820 5818 5816 5813 5811 5808 5806 5802 5800 5797 5795 5793 5791
5755 5761 5766 5770 5769 5773 5780 5787 5795 5800 5803 5807 5810 5813 5816 5818 5821 5822 5822 5822 5822 5822 5822 5821 5821 5820 5819 5817 5816 5814 5812 5810 5807 5805 5803 5800 5797 5794 5792 5789 5787 5784 5782
5748 5753 5758 5762 5767 5766 5774 5780 5782 5788 5794 5800 5803 5805 5809 5810 5813 5814 5814 5814 5814 5813 5813 5813 5812 5811 5810 5809 5807 5805 5803 5801 5798 5795 5793 5791 5788 5785 5782 5780 5777 5774 5771
5740 5745 5751 5756 5757 5754 5765 5770 5777 5782 5788 5795 5797 5798 5798 5800 5803 5805 5805 5805 5805 5804 5804 5804 5803 5802 5801 5799 5798 5796 5794 5792 5790 5787 5784 5781 5778 5776 5773 5770 5767 5764 5760
5731 5736 5741 5748 5753 5759 5764 5765 5769 5773 5777 5781 5786 5791 5791 5791 5793 5795 5795 5796 5796 5794 5793 5793 5793 5792 5791 5789 5787 5785 5783 5781 5779 5777 5775 5772 5769 5766 5761 5758 5756 5753 5750
5724 5730 5734 5739 5746 5753 5754 5754 5761 5764 5768 5771 5776 5779 5781 5783 5784 5785 5785 5785 5785 5784 5783 5782 5782 5781 5780 5778 5776 5774 5772 5770 5767 5764 5761 5759 5757 5753 5749 5746 5742 5739 5736
5716 5722 5728 5733 5737 5744 5749 5751 5751 5755 5757 5761 5762 5766 5770 5772 5773 5774 5775 5775 5775 5773 5772 5772 5771 5769 5768 5766 5764 5762 5760 5758 5755 5754 5751 5748 5744 5739 5736 5733 5731 5728 5724
Wind_Speed
16 16 16 15 13 12 12 12 12 12 11 9 7 6 7 7 8 7 8 9 8 7 6 5 4 4 3 3 2 1 3 4 5 6 7 7 8 8 7 8 10 12 13
19 19 18 17 15 14 14 14 14 13 11 9 8 7 8 8 8 8 8 7 6 6 4 3 3 2 2 2 1 2 3 4 4 5 6 7 6 7 6 7 9 11 13
20 20 20 18 16 15 15 14 14 13 12 10 9 9 9 9 8 7 7 7 5 5 4 3 2 3 2 2 3 3 5 6 6 8 8 9 9 8 8 8 10 11 12
22 22 22 21 19 17 16 16 14 14 12 11 11 10 8 5 4 4 4 4 5 4 4 4 4 3 3 3 3 4 6 7 8 9 10 10 10 10 10 10 11 13 14
24 24 24 23 21 19 18 17 16 15 14 14 13 9 5 3 2 2 2 2 2 3 3 3 3 4 5 5 5 6 7 8 8 8 8 10 11 12 12 11 12 13 14
27 26 25 24 23 21 19 18 18 17 17 17 13 9 5 3 3 3 2 2 2 2 3 4 5 5 6 8 9 8 8 9 9 10 10 10 11 12 13 15 15 14 15
30 28 26 27 26 24 22 20 20 19 20 17 13 9 4 1 3 4 4 3 2 3 4 5 6 7 7 8 9 10 10 10 11 11 11 11 12 13 14 14 15 15 16
31 30 27 28 28 26 23 22 22 22 22 18 15 10 6 1 3 5 6 5 6 6 5 6 8 9 10 10 10 11 12 12 13 13 13 13 13 13 13 14 15 16 16
33 32 30 29 29 29 26 25 25 25 25 21 17 12 6 1 3 4 6 7 8 8 8 9 10 12 12 12 13 13 16 15 16 15 15 16 16 16 16 17 18 18 18
36 34 33 31 30 30 29 27 27 28 26 23 19 14 8 2 3 5 6 7 8 9 10 11 12 13 14 16 16 17 17 18 17 18 18 18 19 19 19 20 20 22 23
37 36 36 33 32 32 31 29 29 30 27 24 21 17 12 10 6 5 8 6 7 8 10 11 12 14 14 16 18 20 21 21 20 20 20 20 19 20 20 21 21 22 24
38 38 37 35 34 34 33 31 31 32 29 25 23 19 14 11 11 11 12 10 9 9 10 12 13 15 17 18 18 21 22 21 21 21 21 22 22 21 21 22 23 24 24
41 40 40 39 37 36 35 34 33 34 32 28 25 21 17 14 13 12 14 11 10 12 12 13 14 17 18 18 19 19 21 22 23 24 24 24 23 22 23 24 25 27 28
44 43 43 41 41 36 37 36 35 36 34 31 27 25 20 16 16 12 12 14 14 14 15 15 16 18 19 20 20 20 22 21 23 23 24 26 26 25 26 28 30 30 27
46 44 42 43 42 40 38 37 37 38 36 32 29 27 24 20 19 17 17 21 16 17 16 17 18 20 20 21 21 22 22 23 24 25 27 27 28 29 31 32 31 28 28
47 44 41 45 43 42 40 40 39 37 38 34 30 29 26 23 20 21 21 23 21 18 19 20 22 24 23 23 23 24 24 24 25 25 27 29 29 31 31 31 30 31 32
49 45 42 43 44 45 44 42 40 41 38 37 34 31 30 27 24 23 21 21 21 21 23 24 25 26 26 27 28 28 28 28 28 28 29 30 31 31 31 32 33 34 34
40 44 46 52 50 52 52 45 44 42 39 37 36 34 32 28 23 23 22 24 25 25 27 28 27 28 28 29 30 30 32 31 32 32 32 33 34 33 34 35 34 33 33
50 50 45 42 46 48 52 51 46 43 42 40 37 34 32 28 27 27 27 28 29 28 29 32 32 36 35 34 33 34 34 35 34 35 36 35 34 35 35 35 34 34 35
59 53 53 52 42 52 57 50 46 45 42 41 37 34 32 31 31 32 31 32 32 32 32 35 38 40 41 39 37 38 37 36 38 38 37 38 38 34 34 35 35 36 36
63 61 58 52 42 54 43 46 51 47 42 40 40 36 33 31 37 38 35 36 36 37 37 37 40 42 44 43 42 40 40 41 41 40 39 39 38 39 38 38 38 39 40
64 64 63 61 62 58 47 40 51 58 41 40 39 34 36 36 40 42 38 40 41 41 41 41 44 46 45 45 44 43 44 44 43 42 42 40 39 39 39 41 42 42 43
66 66 63 60 68 29 44 30 40 51 54 53 44 43 44 42 41 41 43 44 45 45 44 46 47 46 48 49 47 47 45 45 45 44 43 43 42 42 43 44 45 46 47
65 69 66 65 62 48 58 52 41 38 37 47 59 46 41 40 44 46 47 47 49 50 49 48 48 48 49 50 52 50 49 51 48 46 46 43 45 46 47 49 50 50 49
60 65 69 65 64 61 66 33 45 46 41 43 45 45 43 47 48 48 51 50 51 54 48 46 51 55 57 56 57 55 55 57 51 58 50 49 52 52 52 52 52 52 53
56 61 63 68 68 62 66 54 52 45 43 42 50 49 45 46 47 51 51 53 56 60 61 59 59 58 59 56 56 53 55 51 48 51 53 54 57 57 56 56 56 55 56
Wind_Direction
209 210 202 200 195 191 179 173 172 173 173 173 165 143 126 113 102 94 83 74 68 71 83 81 79 89 98 123 125 92 25 7 360 0 0 6 12 11 10 8 4 6 8
208 210 205 201 196 192 186 181 178 179 179 176 160 142 124 110 100 92 79 69 69 64 64 63 53 64 84 96 348 322 328 332 334 338 347 350 355 357 360 358 354 356 356
213 211 208 202 199 195 192 187 185 181 179 173 159 141 123 106 93 90 80 65 62 61 46 40 36 11 2 0 332 321 320 321 325 329 332 338 341 349 348 348 347 348 351
216 214 210 204 200 199 195 192 191 186 182 172 158 145 135 119 97 82 74 70 53 46 43 37 33 28 6 359 349 331 324 317 317 319 321 327 332 335 333 334 338 341 343
215 217 212 208 202 198 197 197 195 192 184 172 162 159 156 125 72 63 67 52 29 19 16 20 33 31 7 353 347 338 326 315 316 314 320 321 324 324 323 325 330 334 335
217 214 214 211 207 202 199 201 200 194 184 173 172 173 161 116 69 31 24 343 334 337 344 328 323 336 344 335 328 332 320 322 318 315 315 319 321 320 323 323 325 329 332
219 213 211 211 209 207 201 202 204 197 184 181 180 179 171 148 38 18 5 345 315 301 295 303 313 318 322 329 333 331 330 333 332 329 329 327 324 324 325 327 326 329 329
218 215 210 213 211 208 207 206 206 199 188 187 187 187 182 166 21 13 351 330 319 313 296 291 289 293 304 310 318 322 316 321 323 327 330 329 330 332 331 331 332 334 334
220 216 212 212 213 210 209 209 208 199 191 193 194 199 194 164 15 7 356 325 320 318 312 316 308 294 293 299 308 317 309 311 310 312 315 316 318 321 323 326 325 326 327
219 217 213 212 213 213 210 210 210 202 197 195 197 203 199 222 330 340 337 322 316 320 309 316 327 319 301 297 300 303 309 309 308 307 308 314 316 315 316 316 317 317 317
219 218 214 211 213 213 213 211 211 205 201 203 200 203 215 253 271 314 305 311 329 331 326 321 321 325 321 310 302 300 303 304 306 306 307 309 313 314 315 314 315 314 314
219 218 217 213 213 214 214 214 212 209 208 208 208 206 213 224 264 270 285 290 306 317 324 325 325 326 327 327 317 309 308 304 302 305 306 306 307 310 311 312 314 315 316
216 217 217 214 213 215 216 215 214 211 210 212 214 212 210 225 248 257 264 280 296 304 313 323 330 333 332 331 328 322 316 308 302 300 300 303 303 303 305 308 312 313 312
216 217 217 215 215 216 218 218 217 214 213 213 215 215 220 222 232 239 260 277 292 298 308 312 320 327 332 332 327 320 317 305 299 300 300 300 296 301 304 305 308 313 311
215 215 217 217 217 217 220 220 220 217 217 218 218 217 220 222 236 253 264 277 282 295 303 310 313 315 319 323 324 324 317 315 303 297 298 302 299 298 299 306 308 308 308
214 215 214 218 220 219 220 222 222 222 221 218 219 221 221 226 240 258 275 277 273 290 298 303 305 307 309 313 315 317 318 314 311 305 299 297 298 299 301 303 306 305 306
214 211 214 220 220 224 222 223 222 223 221 220 221 223 224 235 250 267 267 264 275 285 294 298 303 308 308 308 309 310 311 312 310 306 303 300 300 301 300 300 301 304 306
214 210 221 219 221 223 222 221 223 223 221 219 218 223 230 240 244 252 256 262 271 283 295 298 304 311 310 306 306 301 304 306 309 306 303 301 299 298 299 300 302 304 305
215 218 226 240 221 224 221 222 220 221 221 219 223 227 235 240 242 250 254 263 272 284 291 294 301 305 308 307 303 299 298 300 301 302 301 298 297 296 297 297 299 301 302
217 217 219 230 228 229 218 215 220 219 219 223 225 229 237 238 245 254 257 264 270 276 284 288 294 300 304 305 302 298 294 297 296 297 300 299 296 293 291 292 294 295 298
218 218 222 231 251 238 224 233 220 222 220 221 223 228 234 243 252 257 259 264 269 272 276 281 288 295 298 300 302 298 293 294 299 294 296 297 296 295 294 292 291 293 295
219 221 222 227 233 249 252 237 219 218 219 226 232 237 247 245 257 263 260 263 267 270 274 280 287 291 295 297 298 300 297 295 298 296 296 296 296 294 292 293 293 291 290
219 223 226 227 230 255 234 246 242 235 234 236 239 259 263 265 261 260 262 265 266 270 275 280 285 290 294 298 298 296 294 296 295 297 296 296 294 293 290 289 287 287 286
220 223 227 229 234 246 252 258 238 247 233 241 236 254 254 252 253 256 262 266 270 273 277 280 284 289 291 294 296 293 293 294 289 292 292 292 291 291 288 288 287 286 288
222 225 229 232 234 231 237 235 239 239 236 233 240 248 251 251 256 263 268 271 277 281 275 280 284 286 288 290 291 294 293 292 285 288 281 288 292 290 289 287 286 288 291
223 226 229 233 237 237 238 245 257 256 230 234 245 241 246 257 261 266 270 273 275 277 276 279 284 287 289 285 289 292 295 290 290 288 285 282 287 289 289 288 288 290 290